• în Republica Moldova
  • Lista ţărilor
  • Pe 7 zile
  • Temperatura apei
  • Hartă satelitară
  • Meteo pe hartă
  • Widget-uri
  • user-avatar
    Intrare

    Meteo pe oră la Gjirokaster

    Astăzi, 29 Iunie, Joi

    Timp Temperatura Precipitaţii Vânt Presiune Umiditate
    00:00 +16°C° 0 mm 3 m/s 651 mmHg 66%
    01:00 +16°C° 0 mm 3 m/s 650 mmHg 63%
    02:00 +16°C° 0 mm 3 m/s 650 mmHg 60%
    03:00 +16°C° 0 mm 3 m/s 650 mmHg 57%
    04:00 +16°C° 0 mm 3 m/s 650 mmHg 54%
    05:00 +18°C° 0 mm 4 m/s 651 mmHg 50%
    06:00 +20°C° 0 mm 4 m/s 651 mmHg 47%
    07:00 +22°C° 0 mm 4 m/s 652 mmHg 43%
    08:00 +25°C° 0 mm 4 m/s 653 mmHg 39%
    09:00 +27°C° 0 mm 5 m/s 653 mmHg 34%
    10:00 +29°C° 0 mm 5 m/s 654 mmHg 29%
    11:00 +29°C° 0 mm 5 m/s 654 mmHg 29%
    12:00 +30°C° 0 mm 5 m/s 654 mmHg 28%
    13:00 +30°C° 0 mm 5 m/s 654 mmHg 27%
    14:00 +29°C° 0 mm 5 m/s 654 mmHg 29%
    15:00 +29°C° 0 mm 4 m/s 654 mmHg 31%
    16:00 +28°C° 0 mm 4 m/s 653 mmHg 33%
    17:00 +26°C° 0 mm 4 m/s 653 mmHg 43%
    18:00 +22°C° 0 mm 3 m/s 652 mmHg 52%
    19:00 +19°C° 0 mm 3 m/s 652 mmHg 62%
    20:00 +18°C° 0 mm 3 m/s 652 mmHg 63%
    21:00 +18°C° 0 mm 3 m/s 652 mmHg 64%
    22:00 +17°C° 0 mm 3 m/s 652 mmHg 65%
    23:00 +17°C° 0 mm 3 m/s 652 mmHg 63%

    Mâine, 30 Iunie, Vineri

    Timp Temperatura Precipitaţii Vânt Presiune Umiditate
    00:00 +16°C° 0 mm 3 m/s 652 mmHg 61%
    01:00 +16°C° 0 mm 3 m/s 652 mmHg 59%
    02:00 +16°C° 0 mm 3 m/s 652 mmHg 58%
    03:00 +16°C° 0 mm 3 m/s 652 mmHg 56%
    04:00 +15°C° 0 mm 2 m/s 652 mmHg 54%
    05:00 +18°C° 0 mm 2 m/s 653 mmHg 50%
    06:00 +21°C° 0 mm 2 m/s 654 mmHg 45%
    07:00 +24°C° 0 mm 2 m/s 655 mmHg 40%
    08:00 +26°C° 0 mm 2 m/s 655 mmHg 36%
    09:00 +28°C° 0 mm 2 m/s 656 mmHg 32%
    10:00 +30°C° 0 mm 2 m/s 656 mmHg 28%
    11:00 +30°C° 0 mm 3 m/s 656 mmHg 27%
    12:00 +31°C° 0 mm 3 m/s 656 mmHg 26%
    13:00 +33°C° 0 mm 3 m/s 656 mmHg 25%
    14:00 +31°C° 0 mm 3 m/s 655 mmHg 26%
    15:00 +31°C° 0 mm 3 m/s 655 mmHg 27%
    16:00 +31°C° 0 mm 3 m/s 655 mmHg 28%
    17:00 +27°C° 0 mm 2 m/s 654 mmHg 37%
    18:00 +24°C° 0 mm 2 m/s 653 mmHg 47%
    19:00 +20°C° 0 mm 2 m/s 652 mmHg 56%
    20:00 +19°C° 0 mm 2 m/s 652 mmHg 56%
    21:00 +19°C° 0 mm 2 m/s 652 mmHg 56%
    22:00 +18°C° 0 mm 3 m/s 652 mmHg 55%
    23:00 +18°C° 0 mm 3 m/s 652 mmHg 52%

    Poimâine, 1 Iulie, Sâmbătă

    Timp Temperatura Precipitaţii Vânt Presiune Umiditate
    00:00 +18°C° 0 mm 3 m/s 652 mmHg 48%
    01:00 +18°C° 0 mm 3 m/s 652 mmHg 44%
    02:00 +17°C° 0 mm 3 m/s 652 mmHg 42%
    03:00 +17°C° 0 mm 3 m/s 652 mmHg 40%
    04:00 +17°C° 0 mm 3 m/s 651 mmHg 38%
    05:00 +20°C° 0 mm 2 m/s 652 mmHg 36%
    06:00 +24°C° 0 mm 2 m/s 653 mmHg 34%
    07:00 +26°C° 0 mm 1 m/s 654 mmHg 32%
    08:00 +28°C° 0 mm 1 m/s 654 mmHg 30%
    09:00 +29°C° 0 mm 2 m/s 654 mmHg 27%
    10:00 +31°C° 0 mm 2 m/s 655 mmHg 25%
    11:00 +31°C° 0 mm 2 m/s 655 mmHg 24%
    12:00 +33°C° 0 mm 3 m/s 654 mmHg 23%
    13:00 +33°C° 0 mm 3 m/s 654 mmHg 22%
    14:00 +33°C° 0 mm 3 m/s 654 mmHg 25%
    15:00 +31°C° 0 mm 3 m/s 653 mmHg 27%
    16:00 +30°C° 0 mm 3 m/s 653 mmHg 29%
    17:00 +27°C° 0 mm 2 m/s 652 mmHg 39%
    18:00 +24°C° 0 mm 2 m/s 651 mmHg 49%
    19:00 +20°C° 0 mm 2 m/s 651 mmHg 60%
    20:00 +20°C° 0 mm 1 m/s 651 mmHg 64%
    21:00 +19°C° 0 mm 1 m/s 650 mmHg 69%
    22:00 +16°C° 0 mm 1 m/s 650 mmHg 74%
    23:00 +16°C° 0 mm 1 m/s 650 mmHg 77%

    2 Iulie, Duminică

    Timp Temperatura Precipitaţii Vânt Presiune Umiditate
    00:00 +15°C° 0 mm 1 m/s 650 mmHg 80%
    01:00 +15°C° 0 mm 2 m/s 649 mmHg 83%
    02:00 +15°C° 0 mm 2 m/s 649 mmHg 83%
    03:00 +15°C° 0 mm 2 m/s 649 mmHg 83%
    04:00 +14°C° 0 mm 2 m/s 649 mmHg 83%
    05:00 +17°C° 0 mm 2 m/s 649 mmHg 74%
    06:00 +19°C° 0 mm 3 m/s 650 mmHg 64%
    07:00 +21°C° 0 mm 3 m/s 651 mmHg 55%
    08:00 +22°C° 0 mm 3 m/s 651 mmHg 50%
    09:00 +25°C° 0 mm 4 m/s 651 mmHg 45%
    10:00 +26°C° 0 mm 5 m/s 651 mmHg 41%
    11:00 +26°C° 0 mm 5 m/s 651 mmHg 39%
    12:00 +26°C° 0 mm 6 m/s 651 mmHg 37%
    13:00 +26°C° 0 mm 7 m/s 651 mmHg 35%
    14:00 +24°C° 0 mm 7 m/s 651 mmHg 36%
    15:00 +23°C° 0 mm 7 m/s 650 mmHg 38%
    16:00 +23°C° 0 mm 7 m/s 650 mmHg 39%
    17:00 +20°C° 0 mm 6 m/s 650 mmHg 47%
    18:00 +17°C° 0 mm 6 m/s 650 mmHg 55%
    19:00 +15°C° 0 mm 5 m/s 650 mmHg 63%
    20:00 +14°C° 0 mm 4 m/s 649 mmHg 68%
    21:00 +13°C° 0 mm 4 m/s 649 mmHg 73%
    22:00 +12°C° 0 mm 4 m/s 649 mmHg 78%
    23:00 +11°C° 0 mm 4 m/s 649 mmHg 80%

    3 Iulie, Luni

    Timp Temperatura Precipitaţii Vânt Presiune Umiditate
    00:00 +11°C° 0 mm 4 m/s 649 mmHg 81%
    01:00 +10°C° 0 mm 3 m/s 649 mmHg 83%
    02:00 +10°C° 0 mm 3 m/s 649 mmHg 83%
    03:00 +10°C° 0 mm 3 m/s 649 mmHg 83%
    04:00 +10°C° 0 mm 4 m/s 649 mmHg 83%
    05:00 +12°C° 0 mm 3 m/s 649 mmHg 73%
    06:00 +14°C° 0 mm 3 m/s 650 mmHg 64%
    07:00 +17°C° 0 mm 3 m/s 651 mmHg 55%
    08:00 +19°C° 0 mm 3 m/s 651 mmHg 48%
    09:00 +20°C° 0 mm 3 m/s 651 mmHg 41%
    10:00 +22°C° 0 mm 4 m/s 652 mmHg 35%
    11:00 +22°C° 0 mm 5 m/s 652 mmHg 34%
    12:00 +23°C° 0 mm 5 m/s 652 mmHg 33%
    13:00 +23°C° 0 mm 6 m/s 652 mmHg 33%
    14:00 +23°C° 0 mm 6 m/s 652 mmHg 34%
    15:00 +23°C° 0 mm 6 m/s 652 mmHg 35%
    16:00 +23°C° 0 mm 6 m/s 652 mmHg 37%
    17:00 +20°C° 0 mm 6 m/s 652 mmHg 45%
    18:00 +17°C° 0 mm 5 m/s 652 mmHg 53%
    19:00 +15°C° 0 mm 4 m/s 651 mmHg 61%
    20:00 +14°C° 0 mm 4 m/s 651 mmHg 63%
    21:00 +13°C° 0 mm 4 m/s 651 mmHg 65%
    22:00 +12°C° 0 mm 3 m/s 652 mmHg 66%
    23:00 +12°C° 0 mm 3 m/s 651 mmHg 67%

    4 Iulie, Marţi

    Timp Temperatura Precipitaţii Vânt Presiune Umiditate
    00:00 +11°C° 0 mm 3 m/s 651 mmHg 67%
    01:00 +11°C° 0 mm 3 m/s 651 mmHg 68%
    02:00 +10°C° 0 mm 3 m/s 651 mmHg 69%
    03:00 +10°C° 0 mm 3 m/s 651 mmHg 70%
    04:00 +10°C° 0 mm 3 m/s 651 mmHg 71%
    05:00 +13°C° 0 mm 2 m/s 652 mmHg 65%
    06:00 +15°C° 0 mm 2 m/s 652 mmHg 59%
    07:00 +17°C° 0 mm 2 m/s 653 mmHg 52%
    08:00 +19°C° 0 mm 2 m/s 654 mmHg 46%
    09:00 +22°C° 0 mm 1 m/s 654 mmHg 39%
    10:00 +24°C° 0 mm 1 m/s 655 mmHg 33%
    11:00 +25°C° 0 mm 2 m/s 655 mmHg 32%
    12:00 +25°C° 0 mm 2 m/s 655 mmHg 31%
    13:00 +26°C° 0 mm 3 m/s 655 mmHg 30%
    14:00 +26°C° 0 mm 3 m/s 654 mmHg 31%
    15:00 +25°C° 0 mm 3 m/s 654 mmHg 33%
    16:00 +23°C° 0 mm 4 m/s 654 mmHg 35%
    17:00 +21°C° 0 mm 3 m/s 654 mmHg 43%
    18:00 +19°C° 0 mm 3 m/s 653 mmHg 51%
    19:00 +16°C° 0 mm 2 m/s 653 mmHg 59%
    20:00 +15°C° 0 mm 2 m/s 653 mmHg 61%
    21:00 +14°C° 0 mm 2 m/s 653 mmHg 63%
    22:00 +13°C° 0 mm 2 m/s 652 mmHg 64%
    23:00 +13°C° 0 mm 2 m/s 652 mmHg 63%
    Arată mai mult